Sugar Grove, Illinois
Current Conditions -  °F | °C
As of 5:05 PM on Friday 28 Nov 2014 (Local Time) from KARR Reporting Station
Haze Haze  
Wind Chill: 25°   Ceiling: Unl
Heat Index: 32°   Visibility: 6mi
Dew Point: 26°   Wind: 8mph
Humidity: 79%   Direction: 140°SE
Pressure: 29.97"   Gusts: NA
Location:  41.76°N, 88.44°W
Report Text: KARR 282305Z 14007KT 6SM HZ SCT022 00/M03 A2997 RMK AO2 T00001033
Loading
Personal Weather Stations






























Interactive Weather Map New forecast layout! Learn more

10-Day Weather Forecast

Advertisements
Track Severe Weather on mobile